Simultaneous Nadir Overpasses (SNOs) Predictions

Prediction of SNOs between AQUA and NOAA-19 Satellite Orbit:

Table of predicted SNOs for the next 14.0 days since TLE Epoch: 7/20/2018
Index Date (AQUA) Time (AQUA) Lat,Lon (AQUA) SZA (AQUA ) Date (NOAA-19) Time (NOAA-19) Lat,Lon (NOAA-19) SZA (NOAA-19 ) Distance(km) Time Diff (sec)
1 07/22/2018 16:29:48 -80.76, 74.68 117.23 07/22/2018 16:29:58 -80.77, 74.63 117.22 1.09 10
2 07/24/2018 22:03:36 80.76, 171.23 63.24 07/24/2018 22:03:36 80.77, 171.25 63.24 0.68 0
3 07/27/2018 03:37:25 -80.77, -92.30 116.26 07/27/2018 03:37:07 -80.76, -92.45 116.25 2.91 18
4 07/29/2018 09:11:13 80.77, 4.21 64.26 07/29/2018 09:10:45 80.76, 4.34 64.25 2.68 28
5 07/29/2018 10:00:40 -80.77, 171.85 115.74 07/29/2018 10:01:40 -80.77, 171.98 115.78 2.28 60
6 07/31/2018 14:45:01 -80.75, 100.98 115.25 07/31/2018 14:44:14 -80.76, 101.12 115.23 2.71 47
7 07/31/2018 15:34:28 80.77, -91.65 64.81 07/31/2018 15:35:19 80.76, -91.55 64.77 2.14 51
8 08/02/2018 20:18:49 80.76,-162.53 65.33 08/02/2018 20:17:53 80.76,-162.38 65.33 2.71 56




NCC Satellite Simultaneous Nadir Overpasses (SNOs) Prediction Service
